Photometre #19[NE_1.6] OHP_OBSERVATOIRE AOT

File : 20200923_19.hum

23/09/2020,06:16:04,TEMP=13.3,BA=5.64,STAT.A=Abs.,ExtBa=12.57
23/09/2020,06:19:38,TEMP=13.6,BA=5.64,STAT.A=Abs.,ExtBa=12.49
23/09/2020,06:23:49,TEMP=14.0,BA=5.60,STAT.A=Abs.,ExtBa=12.46
23/09/2020,06:28:48,TEMP=14.2,BA=5.60,STAT.A=Abs.,ExtBa=12.45
23/09/2020,06:34:48,TEMP=14.6,BA=5.60,STAT.A=Abs.,ExtBa=12.46
23/09/2020,06:42:12,TEMP=15.0,BA=5.64,STAT.A=Abs.,ExtBa=12.46
23/09/2020,06:51:34,TEMP=15.0,BA=5.64,STAT.B=Abs.,ExtBa=12.48
23/09/2020,07:00:55,TEMP=15.3,BA=5.60,STAT.A=Abs.,ExtBa=12.43
23/09/2020,07:02:41,TEMP=15.3,BA=5.60,STAT.A=Abs.,ExtBa=12.41
23/09/2020,07:06:45,TEMP=15.2,BA=5.60,STAT.A=Abs.,ExtBa=12.42
23/09/2020,07:13:12,TEMP=15.8,BA=5.64,STAT.A=Abs.,ExtBa=12.45
23/09/2020,07:20:38,TEMP=16.6,BA=5.64,STAT.C=Abs.,ExtBa=12.47
23/09/2020,07:34:22,TEMP=17.7,BA=5.60,STAT.A=Abs.,ExtBa=12.40
23/09/2020,07:39:29,TEMP=17.8,BA=5.60,STAT.A=Abs.,ExtBa=12.44
23/09/2020,07:51:47,TEMP=18.3,BA=5.64,STAT.A=Abs.,ExtBa=12.49
23/09/2020,08:06:58,TEMP=19.1,BA=5.64,STAT.A=Abs.,ExtBa=12.50
23/09/2020,08:26:20,TEMP=20.3,BA=5.64,STAT.B=Abs.,ExtBa=12.52
23/09/2020,08:34:57,TEMP=21.0,BA=5.60,STAT.F,ExtBa=12.37
23/09/2020,08:48:55,TEMP=21.3,BA=5.60,STAT.b=Abs.
23/09/2020,08:59:50,TEMP=20.8,BA=5.64,STAT.D=Abs.,ExtBa=12.48
23/09/2020,09:14:51,TEMP=19.5,BA=5.64,STAT.D=Abs.,ExtBa=12.50
23/09/2020,09:29:53,TEMP=21.4,BA=5.64,STAT.F,ExtBa=12.51
23/09/2020,09:44:51,TEMP=19.7,BA=5.64,STAT.D=Abs.,ExtBa=12.51
23/09/2020,09:59:51,TEMP=21.9,BA=5.64,STAT.D=Abs.,ExtBa=12.51
23/09/2020,10:14:51,TEMP=23.6,BA=5.64,STAT.D=Abs.,ExtBa=12.52
23/09/2020,10:29:53,TEMP=24.7,BA=5.64,STAT.F,ExtBa=12.52
23/09/2020,10:44:52,TEMP=24.6,BA=5.60,STAT.D=Abs.,ExtBa=12.39
23/09/2020,10:59:51,TEMP=24.3,BA=5.64,STAT.D=Abs.,ExtBa=12.51
23/09/2020,11:14:52,TEMP=24.8,BA=5.64,STAT.D=Abs.,ExtBa=12.52
23/09/2020,11:29:53,TEMP=24.0,BA=5.64,STAT.F,ExtBa=12.54
23/09/2020,11:44:51,TEMP=21.8,BA=5.64,STAT.D=Abs.,ExtBa=12.52
23/09/2020,11:59:52,TEMP=23.1,BA=5.64,STAT.D=Abs.,ExtBa=12.51
23/09/2020,12:14:51,TEMP=22.7,BA=5.64,STAT.D=Abs.,ExtBa=12.51
23/09/2020,12:29:53,TEMP=24.0,BA=5.64,STAT.F,ExtBa=12.52
23/09/2020,12:44:51,TEMP=24.5,BA=5.60,STAT.D=Abs.,ExtBa=12.37
23/09/2020,12:59:51,TEMP=24.7,BA=5.64,STAT.D=Abs.,ExtBa=12.49
23/09/2020,13:14:51,TEMP=25.3,BA=5.64,STAT.D=Abs.,ExtBa=12.50
23/09/2020,13:29:53,TEMP=25.3,BA=5.64,STAT.F,ExtBa=12.50
23/09/2020,13:44:51,TEMP=24.5,BA=5.60,STAT.D=Abs.,ExtBa=12.36
23/09/2020,13:59:51,TEMP=24.5,BA=5.64,STAT.D=Abs.,ExtBa=12.48
23/09/2020,14:14:51,TEMP=24.7,BA=5.64,STAT.D=Abs.,ExtBa=12.48
23/09/2020,14:29:53,TEMP=24.3,BA=5.64,STAT.F,ExtBa=12.49
23/09/2020,14:43:25,TEMP=23.8,BA=5.60,STAT.B=Abs.,ExtBa=12.34
23/09/2020,14:52:46,TEMP=23.6,BA=5.60,STAT.A=Abs.,ExtBa=12.31
23/09/2020,15:07:57,TEMP=23.6,BA=5.64,STAT.A=Abs.,ExtBa=12.46
23/09/2020,15:20:15,TEMP=23.3,BA=5.60,STAT.A=Abs.,ExtBa=12.46
23/09/2020,15:30:27,TEMP=23.1,BA=5.64,STAT.A=Abs.,ExtBa=12.45
23/09/2020,15:39:06,TEMP=22.6,BA=5.64,STAT.C=Abs.,ExtBa=12.45
23/09/2020,15:53:20,TEMP=22.2,BA=5.60,STAT.A=Abs.,ExtBa=12.36
23/09/2020,15:55:05,TEMP=22.3,BA=5.60,STAT.A=Abs.,ExtBa=12.31
23/09/2020,15:58:39,TEMP=22.1,BA=5.60,STAT.A=Abs.,ExtBa=12.35
23/09/2020,16:03:41,TEMP=22.0,BA=5.60,STAT.A=Abs.,ExtBa=12.39
23/09/2020,16:08:10,TEMP=22.0,BA=5.60,STAT.B=Abs.,ExtBa=12.39
23/09/2020,16:17:32,TEMP=21.8,BA=5.60,STAT.A=Abs.,ExtBa=12.28
23/09/2020,16:24:56,TEMP=21.5,BA=5.64,STAT.A=Abs.,ExtBa=12.39
23/09/2020,16:30:56,TEMP=21.4,BA=5.64,STAT.A=Abs.,ExtBa=12.38
23/09/2020,16:46:28,TEMP=20.6,BA=5.60,STAT.A=Abs.,ExtBa=12.41
23/09/2020,16:48:13,TEMP=20.8,BA=5.60,STAT.A=Abs.,ExtBa=12.28
23/09/2020,16:49:58,TEMP=20.8,BA=5.60,STAT.A=Abs.,ExtBa=12.26